SCP
0 1 1 1 1 1 1 1 1 0 0 0 0 0 0 0 0 0 0 0 1 0 0 0 0 0 0 0 0 0 0 0 0 0 0 0 0 0 0 0 0 0 0
0 0 1 0 1 1 1 1 1 1 0 0 0 0 0 0 0 0 0 1 1 0 0 0 0 0 0 0 0 0 0 0 0 0 0 0 0 0 0 0 0 0 0
0 0 0 0 0 0 0 1 1 1 1 0 0 0 0 0 0 0 0 1 1 0 0 0 0 0 0 0 0 0 0 0 0 0 0 0 0 0 0 0 0 0 0
0 0 0 0 0 0 0 0 1 1 1 0 0 0 0 0 0 0 0 1 1 1 0 0 0 0 0 0 0 0 0 0 0 0 0 0 0 0 0 0 0 0 0
0 0 0 0 0 0 0 0 0 1 1 1 0 0 0 0 0 0 1 1 1 0 0 0 0 0 0 0 0 0 0 0 0 0 0 0 0 0 0 0 0 0 0
0 0 0 0 0 0 0 0 0 0 1 1 1 1 0 0 0 0 1 1 0 0 0 0 0 0 0 0 0 0 0 0 0 0 0 0 0 0 0 0 0 0 0
0 0 0 0 0 0 0 0 0 0 0 0 1 0 0 0 0 1 1 1 0 0 0 0 0 0 0 0 0 0 0 0 0 0 0 0 0 0 0 0 0 0 0
0 0 0 0 0 0 0 0 0 0 0 0 0 0 0 0 0 0 1 1 0 0 0 0 0 0 0 0 0 0 0 0 0 0 0 0 0 0 0 0 0 0 0
0 0 0 0 0 0 0 0 0 0 0 0 1 0 0 0 0 2 1 1 0 0 0 0 0 0 0 0 0 0 0 0 0 0 0 0 0 0 0 0 0 0 0
0 0 0 0 0 0 0 0 0 0 0 0 0 1 1 0 0 1 1 1 1 0 0 0 0 0 0 0 0 0 0 0 0 0 0 0 0 0 0 0 0 0 0
0 0 0 0 0 0 0 0 0 0 0 0 0 0 1 1 0 1 3 2 1 0 0 0 0 0 0 0 0 0 0 0 0 0 0 0 0 0 0 0 0 0 0
0 0 0 0 0 0 0 0 0 0 0 0 0 0 0 1 0 0 0 1 1 1 0 0 0 0 0 0 0 0 0 0 0 0 0 0 0 0 0 0 0 0 0
0 0 0 0 0 0 0 0 0 0 0 0 0 0 0 0 0 0 0 1 2 0 0 0 0 0 0 0 0 0 0 0 0 0 0 0 0 0 0 0 -0 -0 0
0 0 0 0 0 0 0 0 0 0 0 0 0 0 0 0 0 1 0 1 4 2 0 0 0 0 0 0 0 -0 0 0 0 0 0 0 0 0 0 0 -0 -0 0
0 0 0 0 0 0 0 0 0 0 0 0 0 0 0 0 0 0 0 0 1 2 1 0 0 0 0 0 0 0 0 0 0 0 0 0 0 0 0 0 -0 -0 0
0 0 0 0 0 0 0 0 0 0 0 0 0 0 0 0 0 0 0 0 1 1 1 0 0 0 0 0 0 0 0 0 0 -0 0 0 0 0 0 0 -0 -0 -0
0 0 0 0 0 0 0 0 0 0 0 0 0 0 0 0 0 0 0 1 1 1 1 0 0 0 0 0 0 0 0 0 0 -0 -0 -0 0 0 0 -0 -0 -0 -0
0 0 0 0 0 0 0 0 0 0 0 0 0 0 0 0 0 0 0 0 1 1 1 0 0 0 0 0 0 0 0 0 0 -0 -0 -0 0 0 0 -0 0 -0 -0
0 0 0 0 0 0 0 0 0 0 0 0 0 0 0 0 0 0 0 0 1 1 0 0 0 0 0 0 0 0 0 0 0 -0 -0 -0 0 0 0 0 0 0 -0
0 0 0 0 0 0 0 0 0 0 0 0 0 0 0 0 0 0 0 0 0 1 0 0 0 0 0 0 0 0 0 0 0 0 0 -0 0 0 0 0 0 0 0
0 0 0 0 0 0 0 0 0 0 0 0 0 0 0 0 0 0 0 0 1 1 0 0 0 0 0 0 0 0 0 0 0 0 0 0 0 0 0 0 0 0 0
0 0 0 0 0 0 0 0 0 0 0 0 0 0 0 0 0 0 0 0 0 0 0 0 0 0 0 0 0 0 0 0 0 0 0 0 0 0 0 0 0 0 0
0 0 0 0 0 0 0 0 0 0 0 0 0 0 0 0 -0 -0 0 0 0 0 0 0 0 0 0 0 0 0 0 0 0 0 0 0 0 0 0 0 0 0 0
0 0 0 0 0 0 0 0 0 0 -0 -0 0 0 0 0 -0 -0 0 0 0 0 0 0 0 0 0 0 0 0 0 0 0 0 0 0 0 0 0 0 0 0 0
0 0 0 0 0 0 0 0 0 0 -0 -0 -0 -0 -0 -0 -0 -0 0 1 0 0 0 0 0 0 0 0 0 0 0 0 0 0 0 0 0 0 0 0 0 0 0
0 0 0 0 0 0 0 0 0 -0 -0 -0 0 -0 -0 -0 -0 0 0 0 0 0 0 0 0 0 0 0 0 0 0 0 0 0 0 0 0 0 0 0 0 0 0
Wind_Speed_500mb
31 33 35 36 40 44 47 49 50 52 49 49 49 49 46 45 47 40 37 34 31 28 26 24 18 18 19 25 28 31 31 26 21 20 21 21 22 21 22 20 19 17 14
35 36 41 44 41 49 49 51 54 57 57 52 52 53 53 49 48 43 37 35 32 30 29 26 19 15 17 21 26 28 30 26 22 21 22 22 21 20 21 22 20 20 19
41 42 43 43 48 51 54 58 58 58 63 61 57 57 58 55 52 49 43 41 38 36 34 30 23 14 18 19 23 25 27 26 22 22 22 21 22 21 22 20 20 21 21
38 43 45 46 47 48 55 54 53 62 65 69 66 63 59 59 57 56 51 48 44 41 39 36 26 16 17 18 20 22 24 24 20 20 21 21 22 22 21 19 20 18 17
40 42 45 50 50 52 50 56 55 50 65 75 77 73 64 60 57 60 58 53 47 46 42 40 30 20 15 16 17 19 21 21 18 18 19 19 20 22 22 21 21 19 18
49 50 50 49 53 56 54 52 52 62 58 70 86 88 69 61 57 61 61 56 51 49 47 45 37 26 17 15 16 17 17 19 17 16 15 17 18 21 22 21 22 20 18
55 54 48 48 47 53 58 55 56 55 61 69 52 53 54 63 56 56 57 57 55 52 53 50 44 30 22 18 16 13 14 16 15 14 11 15 16 20 18 19 20 21 18
52 53 54 50 47 49 53 56 56 60 63 41 36 43 47 84 55 51 53 55 57 57 57 56 49 37 27 23 17 11 13 13 14 10 11 12 12 15 16 18 19 22 19
56 53 56 56 52 50 50 51 52 54 60 64 38 31 13 23 41 40 60 61 61 62 62 61 55 43 34 29 21 12 11 11 11 8 7 9 11 11 15 16 20 20 17
58 58 57 58 57 54 54 51 49 50 49 54 57 50 51 26 36 33 54 66 67 63 67 64 62 52 42 37 25 16 11 9 9 6 6 8 9 12 15 17 20 17 15
61 58 55 53 55 56 56 54 52 49 48 51 48 58 64 64 59 32 39 53 66 68 70 67 66 62 51 44 33 20 11 10 9 6 1 5 6 10 13 17 20 16 14
68 60 56 58 55 54 56 54 51 51 49 52 53 59 59 58 70 85 58 49 64 71 78 71 68 69 59 51 40 24 13 11 12 8 2 2 3 6 11 17 19 14 12
67 61 58 59 61 58 58 60 56 54 52 54 56 60 68 67 65 86 74 64 55 55 60 70 71 70 64 57 46 32 20 15 15 10 6 4 2 3 10 13 14 12 9
68 66 62 63 62 60 58 57 63 62 59 57 60 58 69 77 78 88 87 82 60 64 63 75 73 69 68 63 53 40 29 19 19 12 10 7 3 3 8 11 10 7 6
70 69 68 67 67 66 61 60 65 67 68 65 62 62 68 80 78 97 94 90 86 53 54 60 67 71 66 67 59 48 37 22 21 16 14 9 6 2 6 10 10 3 4
73 71 71 69 69 69 66 62 64 60 66 69 68 65 67 77 87 95 89 111 88 82 57 75 78 75 73 72 67 52 43 32 24 21 16 13 8 3 4 8 8 4 2
73 72 74 74 73 71 68 69 67 64 70 71 71 73 81 72 92 90 94 112 106 87 76 75 77 72 73 81 73 59 54 39 29 26 19 16 12 6 5 8 6 3 1
76 77 77 77 76 74 72 73 70 65 67 72 70 72 82 81 95 97 101 117 113 109 90 82 75 76 68 85 76 69 60 45 35 28 25 21 15 5 4 8 4 2 2
80 82 82 83 80 76 72 73 76 73 71 75 76 79 87 89 97 112 106 115 116 115 102 85 80 78 74 87 87 75 65 51 41 34 29 25 16 7 3 5 3 6 5
81 84 84 86 83 74 70 74 81 79 76 79 79 84 91 99 105 123 111 114 121 114 112 90 89 78 77 91 90 86 73 59 54 43 36 29 20 10 5 3 4 6 9
81 84 86 88 90 89 85 76 75 78 79 80 83 81 94 105 105 121 114 120 117 114 112 107 94 83 89 98 100 92 77 70 55 47 44 34 23 15 8 4 7 8 11
80 88 84 88 91 85 81 74 81 79 79 81 94 97 82 92 102 119 127 124 121 115 122 110 106 94 91 94 100 94 88 79 69 58 51 42 30 19 11 7 10 12 15
78 84 83 88 90 85 79 77 73 67 65 81 82 78 85 89 105 110 123 134 129 129 128 114 110 105 95 97 92 99 93 82 78 64 61 49 37 25 18 14 16 17 20
70 81 79 78 81 75 61 54 50 52 61 75 81 83 101 112 99 120 120 137 130 127 119 100 107 106 88 88 79 82 89 92 70 59 67 57 46 34 26 20 20 22 27
73 75 67 69 74 74 62 51 51 55 61 73 78 76 83 104 93 106 128 135 131 122 108 92 85 93 94 84 89 91 94 93 75 68 73 57 58 46 35 27 23 20 22
74 77 71 68 66 78 73 52 44 53 57 70 82 80 86 110 128 134 141 131 130 121 109 102 94 99 99 84 60 61 72 91 87 67 82 67 68 58 38 35 28 22 17
Wind_Direction_500mb
276 265 264 274 272 269 265 266 269 270 266 262 259 258 254 252 257 258 253 264 274 266 270 282 306 320 337 346 353 359 7 12 16 8 15 18 15 15 8 17 14 15 10
284 283 277 263 264 266 269 268 264 267 268 266 262 258 258 253 254 256 250 258 266 259 261 272 287 305 324 338 348 356 4 9 11 7 13 15 14 15 14 26 25 29 29
285 281 278 282 272 267 267 268 263 266 265 260 259 257 253 252 250 252 251 253 256 253 256 264 272 292 310 327 345 352 358 7 8 8 12 17 20 25 30 36 34 36 33
292 286 283 275 275 278 269 264 267 266 267 265 257 253 253 250 249 249 251 251 252 245 249 257 262 271 294 316 339 345 355 7 8 9 13 16 18 30 31 35 31 30 26
297 292 286 284 277 271 270 264 256 260 271 270 267 258 251 251 248 245 246 244 248 241 244 252 258 257 278 303 325 337 353 3 9 12 18 21 16 34 38 39 32 27 26
306 298 292 288 283 276 269 266 264 258 261 271 276 271 257 256 256 250 243 237 242 242 241 246 250 247 262 284 302 328 344 358 10 15 22 30 21 41 43 35 23 19 13
304 304 300 292 288 279 274 271 268 265 264 260 289 264 247 259 259 257 248 237 238 239 240 243 246 240 249 265 280 317 329 357 6 20 23 38 32 50 47 36 17 10 14
302 297 296 295 291 287 275 270 269 270 264 270 287 291 220 228 267 269 249 238 239 239 239 240 241 236 238 250 266 294 314 347 5 24 33 46 44 50 44 33 15 5 9
305 295 292 290 288 284 281 275 269 268 271 259 268 248 228 236 207 257 252 240 238 239 238 239 238 232 233 242 248 269 300 325 359 24 51 53 45 50 42 25 13 8 11
306 296 289 286 284 282 277 274 269 265 265 268 255 253 237 214 205 218 242 237 237 238 238 237 236 230 230 235 234 247 291 307 340 4 51 55 37 32 31 20 10 9 26
305 297 293 288 283 278 273 272 269 265 261 263 258 249 250 236 218 202 219 223 230 235 238 240 236 229 229 226 227 232 270 295 304 327 39 64 32 34 18 14 8 9 45
307 301 296 293 289 277 269 269 268 264 261 258 256 248 251 246 237 231 231 234 239 233 237 236 233 229 227 223 220 220 255 275 272 289 245 136 42 26 22 12 9 3 56
305 301 298 295 294 286 274 264 264 263 259 256 257 253 244 240 245 237 237 223 222 220 221 235 237 232 226 220 217 212 233 255 258 259 235 211 209 11 24 7 9 5 51
305 301 296 293 293 290 282 272 264 259 257 257 253 255 250 243 232 233 231 219 205 206 214 230 229 230 224 218 217 214 218 238 247 245 230 218 220 329 11 0 1 18 28
308 304 299 296 295 294 288 279 267 258 257 259 258 253 253 246 245 230 226 223 215 202 192 214 213 217 217 216 215 212 216 219 234 233 228 217 221 287 0 353 351 2 28
305 303 298 296 293 293 291 286 275 265 257 254 255 251 252 248 243 240 230 219 217 217 194 213 220 224 214 211 212 210 216 212 217 228 220 216 222 257 334 333 334 327 56
303 301 299 298 297 294 290 286 280 267 254 251 252 249 255 253 240 245 230 221 213 212 206 208 223 223 218 205 208 206 213 209 210 220 212 212 223 243 302 301 316 305 71
304 303 301 297 296 296 292 285 283 268 255 251 252 250 249 252 243 240 236 225 216 213 210 209 213 214 215 205 204 203 205 203 209 209 209 212 220 236 287 288 284 188 129
305 304 302 301 299 296 292 286 281 273 257 250 250 251 252 250 244 234 231 224 215 214 211 207 208 208 209 201 199 200 199 195 200 203 206 207 213 213 271 305 264 158 136
309 308 308 305 302 299 293 288 281 273 258 253 255 260 253 249 240 232 228 220 211 209 211 206 214 202 200 198 198 195 190 193 194 198 202 200 201 189 217 278 198 165 109
314 312 311 308 302 297 295 288 282 274 261 253 255 263 253 240 238 231 226 215 203 203 207 207 202 196 193 193 193 194 197 193 190 200 200 195 192 191 205 214 174 155 123
315 314 310 311 303 296 289 283 278 273 259 258 258 256 247 242 238 229 223 215 207 200 203 202 202 202 200 198 194 195 195 188 184 195 195 189 184 189 177 160 149 141 119
319 318 312 309 308 298 289 279 279 268 261 270 265 249 262 242 239 223 224 216 207 208 214 210 208 210 204 202 198 197 199 202 197 192 187 183 183 179 165 143 119 111 99
328 325 317 310 308 302 298 290 276 269 276 280 253 279 243 237 227 224 223 205 203 209 212 212 214 215 214 207 208 205 199 198 197 190 187 179 178 174 167 148 127 112 102
326 323 322 319 312 303 308 288 282 285 291 278 279 282 224 219 223 219 195 192 202 206 210 213 216 216 209 211 201 199 195 192 183 185 188 191 179 172 164 161 149 130 112
319 321 323 323 321 320 316 299 275 279 282 289 278 268 241 218 219 194 185 187 195 202 200 202 205 210 211 216 211 214 206 196 191 182 194 190 185 176 163 174 168 157 139
Wind_Speed_850mb
31 33 35 36 40 44 47 49 50 52 49 49 49 49 46 45 47 40 37 34 31 28 26 24 18 18 19 25 28 31 31 26 21 20 21 21 22 21 22 20 19 17 14
35 36 41 44 41 49 49 51 54 57 57 52 52 53 53 49 48 43 37 35 32 30 29 26 19 15 17 21 26 28 30 26 22 21 22 22 21 20 21 22 20 20 19
41 42 43 43 48 51 54 58 58 58 63 61 57 57 58 55 52 49 43 41 38 36 34 30 23 14 18 19 23 25 27 26 22 22 22 21 22 21 22 20 20 21 21
38 43 45 46 47 48 55 54 53 62 65 69 66 63 59 59 57 56 51 48 44 41 39 36 26 16 17 18 20 22 24 24 20 20 21 21 22 22 21 19 20 18 17
40 42 45 50 50 52 50 56 55 50 65 75 77 73 64 60 57 60 58 53 47 46 42 40 30 20 15 16 17 19 21 21 18 18 19 19 20 22 22 21 21 19 18
49 50 50 49 53 56 54 52 52 62 58 70 86 88 69 61 57 61 61 56 51 49 47 45 37 26 17 15 16 17 17 19 17 16 15 17 18 21 22 21 22 20 18
55 54 48 48 47 53 58 55 56 55 61 69 52 53 54 63 56 56 57 57 55 52 53 50 44 30 22 18 16 13 14 16 15 14 11 15 16 20 18 19 20 21 18
52 53 54 50 47 49 53 56 56 60 63 41 36 43 47 84 55 51 53 55 57 57 57 56 49 37 27 23 17 11 13 13 14 10 11 12 12 15 16 18 19 22 19
56 53 56 56 52 50 50 51 52 54 60 64 38 31 13 23 41 40 60 61 61 62 62 61 55 43 34 29 21 12 11 11 11 8 7 9 11 11 15 16 20 20 17
58 58 57 58 57 54 54 51 49 50 49 54 57 50 51 26 36 33 54 66 67 63 67 64 62 52 42 37 25 16 11 9 9 6 6 8 9 12 15 17 20 17 15
61 58 55 53 55 56 56 54 52 49 48 51 48 58 64 64 59 32 39 53 66 68 70 67 66 62 51 44 33 20 11 10 9 6 1 5 6 10 13 17 20 16 14
68 60 56 58 55 54 56 54 51 51 49 52 53 59 59 58 70 85 58 49 64 71 78 71 68 69 59 51 40 24 13 11 12 8 2 2 3 6 11 17 19 14 12
67 61 58 59 61 58 58 60 56 54 52 54 56 60 68 67 65 86 74 64 55 55 60 70 71 70 64 57 46 32 20 15 15 10 6 4 2 3 10 13 14 12 9
68 66 62 63 62 60 58 57 63 62 59 57 60 58 69 77 78 88 87 82 60 64 63 75 73 69 68 63 53 40 29 19 19 12 10 7 3 3 8 11 10 7 6
70 69 68 67 67 66 61 60 65 67 68 65 62 62 68 80 78 97 94 90 86 53 54 60 67 71 66 67 59 48 37 22 21 16 14 9 6 2 6 10 10 3 4
73 71 71 69 69 69 66 62 64 60 66 69 68 65 67 77 87 95 89 111 88 82 57 75 78 75 73 72 67 52 43 32 24 21 16 13 8 3 4 8 8 4 2
73 72 74 74 73 71 68 69 67 64 70 71 71 73 81 72 92 90 94 112 106 87 76 75 77 72 73 81 73 59 54 39 29 26 19 16 12 6 5 8 6 3 1
76 77 77 77 76 74 72 73 70 65 67 72 70 72 82 81 95 97 101 117 113 109 90 82 75 76 68 85 76 69 60 45 35 28 25 21 15 5 4 8 4 2 2
80 82 82 83 80 76 72 73 76 73 71 75 76 79 87 89 97 112 106 115 116 115 102 85 80 78 74 87 87 75 65 51 41 34 29 25 16 7 3 5 3 6 5
81 84 84 86 83 74 70 74 81 79 76 79 79 84 91 99 105 123 111 114 121 114 112 90 89 78 77 91 90 86 73 59 54 43 36 29 20 10 5 3 4 6 9
81 84 86 88 90 89 85 76 75 78 79 80 83 81 94 105 105 121 114 120 117 114 112 107 94 83 89 98 100 92 77 70 55 47 44 34 23 15 8 4 7 8 11
80 88 84 88 91 85 81 74 81 79 79 81 94 97 82 92 102 119 127 124 121 115 122 110 106 94 91 94 100 94 88 79 69 58 51 42 30 19 11 7 10 12 15
78 84 83 88 90 85 79 77 73 67 65 81 82 78 85 89 105 110 123 134 129 129 128 114 110 105 95 97 92 99 93 82 78 64 61 49 37 25 18 14 16 17 20
70 81 79 78 81 75 61 54 50 52 61 75 81 83 101 112 99 120 120 137 130 127 119 100 107 106 88 88 79 82 89 92 70 59 67 57 46 34 26 20 20 22 27
73 75 67 69 74 74 62 51 51 55 61 73 78 76 83 104 93 106 128 135 131 122 108 92 85 93 94 84 89 91 94 93 75 68 73 57 58 46 35 27 23 20 22
74 77 71 68 66 78 73 52 44 53 57 70 82 80 86 110 128 134 141 131 130 121 109 102 94 99 99 84 60 61 72 91 87 67 82 67 68 58 38 35 28 22 17
Wind_Direction_850mb
276 265 264 274 272 269 265 266 269 270 266 262 259 258 254 252 257 258 253 264 274 266 270 282 306 320 337 346 353 359 7 12 16 8 15 18 15 15 8 17 14 15 10
284 283 277 263 264 266 269 268 264 267 268 266 262 258 258 253 254 256 250 258 266 259 261 272 287 305 324 338 348 356 4 9 11 7 13 15 14 15 14 26 25 29 29
285 281 278 282 272 267 267 268 263 266 265 260 259 257 253 252 250 252 251 253 256 253 256 264 272 292 310 327 345 352 358 7 8 8 12 17 20 25 30 36 34 36 33
292 286 283 275 275 278 269 264 267 266 267 265 257 253 253 250 249 249 251 251 252 245 249 257 262 271 294 316 339 345 355 7 8 9 13 16 18 30 31 35 31 30 26
297 292 286 284 277 271 270 264 256 260 271 270 267 258 251 251 248 245 246 244 248 241 244 252 258 257 278 303 325 337 353 3 9 12 18 21 16 34 38 39 32 27 26
306 298 292 288 283 276 269 266 264 258 261 271 276 271 257 256 256 250 243 237 242 242 241 246 250 247 262 284 302 328 344 358 10 15 22 30 21 41 43 35 23 19 13
304 304 300 292 288 279 274 271 268 265 264 260 289 264 247 259 259 257 248 237 238 239 240 243 246 240 249 265 280 317 329 357 6 20 23 38 32 50 47 36 17 10 14
302 297 296 295 291 287 275 270 269 270 264 270 287 291 220 228 267 269 249 238 239 239 239 240 241 236 238 250 266 294 314 347 5 24 33 46 44 50 44 33 15 5 9
305 295 292 290 288 284 281 275 269 268 271 259 268 248 228 236 207 257 252 240 238 239 238 239 238 232 233 242 248 269 300 325 359 24 51 53 45 50 42 25 13 8 11
306 296 289 286 284 282 277 274 269 265 265 268 255 253 237 214 205 218 242 237 237 238 238 237 236 230 230 235 234 247 291 307 340 4 51 55 37 32 31 20 10 9 26
305 297 293 288 283 278 273 272 269 265 261 263 258 249 250 236 218 202 219 223 230 235 238 240 236 229 229 226 227 232 270 295 304 327 39 64 32 34 18 14 8 9 45
307 301 296 293 289 277 269 269 268 264 261 258 256 248 251 246 237 231 231 234 239 233 237 236 233 229 227 223 220 220 255 275 272 289 245 136 42 26 22 12 9 3 56
305 301 298 295 294 286 274 264 264 263 259 256 257 253 244 240 245 237 237 223 222 220 221 235 237 232 226 220 217 212 233 255 258 259 235 211 209 11 24 7 9 5 51
305 301 296 293 293 290 282 272 264 259 257 257 253 255 250 243 232 233 231 219 205 206 214 230 229 230 224 218 217 214 218 238 247 245 230 218 220 329 11 0 1 18 28
308 304 299 296 295 294 288 279 267 258 257 259 258 253 253 246 245 230 226 223 215 202 192 214 213 217 217 216 215 212 216 219 234 233 228 217 221 287 0 353 351 2 28
305 303 298 296 293 293 291 286 275 265 257 254 255 251 252 248 243 240 230 219 217 217 194 213 220 224 214 211 212 210 216 212 217 228 220 216 222 257 334 333 334 327 56
303 301 299 298 297 294 290 286 280 267 254 251 252 249 255 253 240 245 230 221 213 212 206 208 223 223 218 205 208 206 213 209 210 220 212 212 223 243 302 301 316 305 71
304 303 301 297 296 296 292 285 283 268 255 251 252 250 249 252 243 240 236 225 216 213 210 209 213 214 215 205 204 203 205 203 209 209 209 212 220 236 287 288 284 188 129
305 304 302 301 299 296 292 286 281 273 257 250 250 251 252 250 244 234 231 224 215 214 211 207 208 208 209 201 199 200 199 195 200 203 206 207 213 213 271 305 264 158 136
309 308 308 305 302 299 293 288 281 273 258 253 255 260 253 249 240 232 228 220 211 209 211 206 214 202 200 198 198 195 190 193 194 198 202 200 201 189 217 278 198 165 109
314 312 311 308 302 297 295 288 282 274 261 253 255 263 253 240 238 231 226 215 203 203 207 207 202 196 193 193 193 194 197 193 190 200 200 195 192 191 205 214 174 155 123
315 314 310 311 303 296 289 283 278 273 259 258 258 256 247 242 238 229 223 215 207 200 203 202 202 202 200 198 194 195 195 188 184 195 195 189 184 189 177 160 149 141 119
319 318 312 309 308 298 289 279 279 268 261 270 265 249 262 242 239 223 224 216 207 208 214 210 208 210 204 202 198 197 199 202 197 192 187 183 183 179 165 143 119 111 99
328 325 317 310 308 302 298 290 276 269 276 280 253 279 243 237 227 224 223 205 203 209 212 212 214 215 214 207 208 205 199 198 197 190 187 179 178 174 167 148 127 112 102
326 323 322 319 312 303 308 288 282 285 291 278 279 282 224 219 223 219 195 192 202 206 210 213 216 216 209 211 201 199 195 192 183 185 188 191 179 172 164 161 149 130 112
319 321 323 323 321 320 316 299 275 279 282 289 278 268 241 218 219 194 185 187 195 202 200 202 205 210 211 216 211 214 206 196 191 182 194 190 185 176 163 174 168 157 139